Regional Weather Roundup
Issued by NWS

Home | Current Version | Previous Version | Graphics & Text | Print | Product List | Glossary On
Versions: 1 2 3 4 5 6 7 8 9 10 11 12 13 14 15 16 17 18 19 20 21 22 23 24 25 26 27 28 29 30 31 32 33 34 35 36 37 38 39 40 41 42 43 44 45 46 47 48 49 50
000
ASUS43 KIND 251809
RWRIN

WEATHER ROUNDUP FOR INDIANA
NATIONAL WEATHER SERVICE INDIANAPOLIS IN
200 PM EDT THU AUG 25 2016

NOTE: "FAIR" INDICATES FEW OR NO CLOUDS BELOW 12,000 FEET WITH NO
SIGNIFICANT WEATHER AND/OR OBSTRUCTIONS TO VISIBILITY.

* - STATION DOES NOT REPORT WEATHER SUCH AS PRECIPITATION OR FOG.

+ - STATION NOT QUALITY CONTROLLED BY THE NATIONAL WEATHER SERVICE.
    USE DATA WITH CAUTION...ESPECIALLY DEWPOINT AND RELATIVE
    HUMIDITY OBSERVATIONS.

INZ001>003-010>013-019-020-251900-
NORTHWEST INDIANA

CITY           SKY/WX    TMP DP  RH WIND       PRES   REMARKS
GARY /AIRPORT/ CLOUDY    77  72  83 N7        30.05S
KNOX *+        CLOUDY    77  50  38 W8G16     30.05S
LA PORTE +     CLOUDY    78  76  93 NW8       30.06S
MICHIGAN CITY+ CLOUDY    73  73 100 MISG      30.05S
MONTICELLO +   PTSUNNY   80  67  65 W9        30.05S
6HR MIN TEMP:  70; 6HR MAX TEMP:  82;

RENSSELAER +   CLOUDY    79  72  78 W9        30.06S
VALPARAISO     CLOUDY    78  70  76 W9        30.05S
6HR MIN TEMP:  69; 6HR MAX TEMP:  79;


$$

LMZ046-743>745-251900-
SOUTHERN LAKE MICHIGAN

STATION/POSITION TIME  TEMP    WIND        PRES    WAVE
                       AIR SEA DIR/SP/G            HT
                 (UTC) (F)     (DEG/KT/KT) (MB)    (FT)
BURNS HARBOR     1716   73     340/  8/ 14 1017.6R
MICHIGAN CITY    1700   73     250/ 14/ 16   N/A
5NW MICH CITY    1800   73 74  310/  6/  8   N/A     1

$$

INZ004-005-014>016-021>024-251900-
NORTH CENTRAL INDIANA

CITY           SKY/WX    TMP DP  RH WIND       PRES   REMARKS
ELKHART        PTSUNNY   77  70  78 W14       30.05R
GOSHEN         CLOUDY    80  68  66 W16G22    30.04R
6HR MIN TEMP:  70; 6HR MAX TEMP:  82; 6HR PCP: TRACE;

LOGANSPORT +   PTSUNNY   81  70  69 W13       30.07R
PERU/GRISSOM   MOSUNNY   84  70  62 W14       30.05S
6HR MIN TEMP:  69; 6HR MAX TEMP:  84;

ROCHESTER +    PTSUNNY   82  72  69 W12       30.05S
SOUTH BEND     LGT RAIN  74  71  91 W7        30.05R
6HR MIN TEMP:  69; 6HR MAX TEMP:  78; 6HR PCP: TRACE;

WARSAW +       PTSUNNY   81  77  89 W16       30.04S

$$

INZ006>009-017-018-025>027-251900-
NORTHEAST INDIANA

CITY           SKY/WX    TMP DP  RH WIND       PRES   REMARKS
ANGOLA *+      PTSUNNY   84  72  65 SW9       30.03R
AUBURN +       MOSUNNY   82  68  61 W10G18    30.04R
FORT WAYNE     MOSUNNY   84  68  58 SW17G24   30.04S
6HR MIN TEMP:  70; 6HR MAX TEMP:  85; 6HR PCP: TRACE;

HUNTINGTON +   SUNNY    N/A N/A N/A SW9       30.04S

$$

INZ028-029-035-036-043>045-051>053-251900-
WEST CENTRAL INDIANA

CITY           SKY/WX    TMP DP  RH WIND       PRES   REMARKS
CRAWFORDSVL +  MOSUNNY   82  70  66 SW10      30.09R
6HR MIN TEMP:  68; 6HR MAX TEMP:  82; 6HR PCP:  0.01;

GREENCASTLE +  PTSUNNY   86  73  66 W8        30.09S
LAFAYETTE      PTSUNNY   82  70  66 W13G18    30.06S
6HR MIN TEMP:  69; 6HR MAX TEMP:  83;

TERRE HAUTE    PTSUNNY   86  70  58 W10       30.08S
6HR MIN TEMP:  75; 6HR MAX TEMP:  88;


$$

INZ030>032-037>040-046>048-054>057-064-065-251900-
CENTRAL INDIANA

CITY           SKY/WX    TMP DP  RH WIND       PRES   REMARKS
ANDERSON       MOSUNNY   86  72  62 W12       30.07F
COLUMBUS       MOSUNNY   88  75  66 W12       30.08S HX  97
INDIANAPOLIS   MOSUNNY   89  71  55 W15G21    30.07F HX  95
6HR MIN TEMP:  75; 6HR MAX TEMP:  89;

-EAGLE CREEK   MOSUNNY   85  71  63 VRB6      30.07S
6HR MIN TEMP:  76; 6HR MAX TEMP:  87;

MARION +       MOSUNNY   83  68  59 W12G18    30.07S
MT COMFORT *+  SUNNY     86  72  62 SW14      30.08S
SHELBYVILLE    MOSUNNY   88  73  61 W10       30.07F HX  95
6HR MIN TEMP:  76; 6HR MAX TEMP:  88;

ZIONSVILLE +   SUNNY     83  69  62 SW8       30.08F
6HR MIN TEMP:  72; 6HR MAX TEMP:  83;


$$

INZ033-034-041-042-049-050-058-059-251900-
EAST CENTRAL INDIANA

CITY           SKY/WX    TMP DP  RH WIND       PRES   REMARKS
MUNCIE         SUNNY     86  71  60 W9G20     30.06F
6HR MIN TEMP:  74; 6HR MAX TEMP:  87;


$$

INZ060-061-067>069-081>083-085>088-251900-
SOUTHWEST INDIANA

CITY           SKY/WX    TMP DP  RH WIND       PRES   REMARKS
EVANSVILLE     PTSUNNY   90  72  55 SW10      30.09F HX  97
6HR MIN TEMP:  76; 6HR MAX TEMP:  90;

HUNTINGBURG *+ SUNNY     90  75  62 SW9       30.10S HX 100
6HR MIN TEMP:  75; 6HR MAX TEMP:  90;

WASHINGTON +   MOSUNNY   88  76  67 MISG      30.08S HX 100
6HR MIN TEMP:  76; 6HR MAX TEMP:  89;


$$

INZ062-063-066-070>080-084-089>092-251900-
SOUTH CENTRAL AND SOUTHEAST INDIANA

CITY           SKY/WX    TMP DP  RH WIND       PRES   REMARKS
BLOOMINGTON    MOSUNNY   87  73  62 W8        30.10S
6HR MIN TEMP:  76; 6HR MAX TEMP:  87;

MADISON *+     MOSUNNY   88  72  58 SW10      30.11F

$$





USA.gov is the U.S. government's official web portal to all federal, state and local government web resources and services.